This is the latest recevied weather packets stored in our database for station/object F1AGU-13. If no packets are shown the sender has not sent any weather packets the latest 10 day(s).
| Time | Temp. | Humidity | Pressure | Rain* | Wind** | Luminosity | Snow |
|---|---|---|---|---|---|---|---|
| 1777701317 | 8.33° C | 93% | 1024.1 hPa | 0 mm | - | - | - |
| 1777700717 | 8.33° C | 93% | 1024.1 hPa | 0 mm | - | - | - |
| 1777700117 | 8.33° C | 94% | 1024 hPa | 0 mm | - | - | - |
| 1777699517 | 8.33° C | 94% | 1024 hPa | 0 mm | - | - | - |
| 1777698917 | 7.78° C | 95% | 1024 hPa | 0 mm | - | - | - |
| 1777698317 | 7.78° C | 94% | 1023.9 hPa | 0 mm | - | - | - |
| 1777697717 | 8.33° C | 93% | 1023.9 hPa | 0 mm | - | - | - |
| 1777697117 | 8.33° C | 93% | 1024.2 hPa | 0 mm | - | - | - |
| 1777696517 | 8.33° C | 94% | 1024.1 hPa | 0 mm | - | - | - |
| 1777695917 | 8.33° C | 93% | 1024.1 hPa | 0 mm | - | - | - |
| 1777695317 | 8.89° C | 94% | 1024.4 hPa | 0 mm | - | - | - |
| 1777694717 | 8.89° C | 94% | 1024.4 hPa | 0 mm | - | - | - |
| 1777694117 | 8.89° C | 94% | 1024.3 hPa | 0 mm | - | - | - |
| 1777693517 | 8.33° C | 93% | 1024.4 hPa | 0 mm | - | - | - |
| 1777692917 | 8.89° C | 93% | 1024.4 hPa | 0 mm | - | - | - |
| 1777692317 | 8.89° C | 93% | 1024.5 hPa | 0 mm | - | - | - |
| 1777691717 | 8.89° C | 92% | 1024.6 hPa | 0 mm | - | - | - |
| 1777691117 | 8.89° C | 92% | 1024.9 hPa | 0 mm | - | - | - |
| 1777690517 | 8.89° C | 92% | 1024.8 hPa | 0 mm | - | - | - |
| 1777689917 | 9.44° C | 92% | 1024.9 hPa | 0 mm | - | - | - |
| 1777689317 | 9.44° C | 92% | 1025 hPa | 0 mm | - | - | - |
| 1777688717 | 9.44° C | 92% | 1025 hPa | 0 mm | - | - | - |
| 1777688117 | 9.44° C | 91% | 1025 hPa | 0 mm | - | - | - |
| 1777687517 | 9.44° C | 91% | 1025.1 hPa | 0 mm | - | - | - |
| 1777686917 | 9.44° C | 91% | 1025.2 hPa | 0 mm | - | - | - |
* Rain latest hour (hover to see other rain measurements)
** Current wind speed in m/s (hover to see current wind gust speed)